Regional Weather Roundup
Issued by NWS

Home | Current Version | Previous Version | Graphics & Text | Print | Product List | Glossary Off
Versions: 1 2 3 4 5 6 7 8 9 10 11 12 13 14 15 16 17 18 19 20 21 22 23 24 25 26 27 28 29 30 31 32 33 34 35 36 37 38 39 40 41 42 43 44 45 46 47 48 49 50

000
ASUS45 KPSR 031300
RWRAZ

ARIZONA HOURLY REGIONAL WEATHER ROUNDUP
NATIONAL WEATHER SERVICE PHOENIX AZ
600 AM MST THU SEP 03 2015

NOTE: FAIR INDICATES FEW OR NO CLOUDS BELOW 12,000 FEET WITH NO
SIGNIFICANT WEATHER AND/OR OBSTRUCTIONS TO VISIBILITY.

AZZ001>003-036-031400-
NORTHWEST ARIZONA

CITY           SKY/WX    TMP DP  RH WIND       PRES   REMARKS
KINGMAN        MOCLDY    67  43  41 SE8       29.97S
$$

AZZ004>008-015-016-018-031400-
NORTH CENTRAL ARIZONA

CITY           SKY/WX    TMP DP  RH WIND       PRES   REMARKS
GRAND CANYON   MOCLDY    49  46  90 CALM      30.21R
WILLIAMS       MOCLDY    61  45  55 S9        30.26S
PRESCOTT       PTCLDY    62  45  53 SW5       30.11S
FLAGSTAFF      NOT AVBL
PAYSON         PTCLDY    61  48  63 CALM      30.16S
PAGE           CLOUDY    69  50  50 SE6       30.04S
$$

AZZ009>014-017-031400-
NORTHEAST ARIZONA

CITY           SKY/WX    TMP DP  RH WIND       PRES   REMARKS
WINSLOW        NOT AVBL
SAINT JOHNS    CLEAR     54  52  93 CALM      30.18S
WINDOW ROCK    PTCLDY    51  47  86 CALM      30.26R
SHOW LOW       CLEAR     55  48  76 S7        30.23R
$$

AZZ023-031400-
GREATER PHOENIX AREA

CITY           SKY/WX    TMP DP  RH WIND       PRES   REMARKS
PHOENIX        MOCLDY    83  57  41 E6        29.85R
GLENDALE       MOCLDY    82  48  30 CALM      29.87
DEER VALLEY    PTCLDY    77  50  38 CALM      29.88R
SCOTTSDALE     PTCLDY    80  58  46 CALM      29.89S
CHANDLER       PTCLDY    81  63  54 CALM      29.87
$$

AZZ027-028-031400-
SOUTHWEST MARICOPA COUNTY AND PINAL COUNTY

CITY           SKY/WX    TMP DP  RH WIND       PRES   REMARKS
CASA GRANDE    CLEAR     79  57  47 CALM      29.88R
GILA BEND      FAIR      78  41  26 SE5       29.83S
$$

AZZ503-504-507>509-031400-
SOUTHEAST ARIZONA

CITY           SKY/WX    TMP DP  RH WIND       PRES   REMARKS
TUCSON         CLEAR     76  61  59 S6        30.00R
DAVIS-MONTHAN  PTCLDY    74  62  65 SE6       29.98S
RYAN FIELD     CLEAR     75  57  53 SE8       29.98
NOGALES        CLOUDY    68  61  78 CALM      30.07S
SIERRA VISTA   CLOUDY    66  59  80 W5        30.12R
SAFFORD        PTCLDY    71  57  61 SE8       30.02R
$$

AZZ020-021-025-026-031-031400-
SOUTHWEST ARIZONA

CITY           SKY/WX    TMP DP  RH WIND       PRES   REMARKS
YUMA           NOT AVBL
$$

CAZ031-033-041-043-047-048-061-031400-
SOUTHERN CALIFORNIA

CITY           SKY/WX    TMP DP  RH WIND       PRES   REMARKS
DOWNTOWN L.A.  CLOUDY    69  58  67 CALM      29.90S
L.A. AIRPORT   CLOUDY    68  60  75 CALM      29.90F
SAN DIEGO      MOCLDY    70  59  68 W7        29.93R
BURBANK        CLOUDY    67  58  72 CALM      29.91S
ONTARIO        MOCLDY    63  58  83 W7        29.92S
RIVERSIDE      CLOUDY    63  58  83 CALM      29.92S
PALM SPRINGS   PTCLDY    77  49  37 SW5       29.79S
EL CENTRO NAS  CLEAR     77  47  34 S8        29.77S
IMPERIAL       CLEAR     77  46  33 CALM      29.76R
BLYTHE         CLEAR     78  52  40 CALM      29.78S
$$

NVZ020-UTZ003-031400-
SOUTHERN NEVADA-UTAH

CITY           SKY/WX    TMP DP  RH WIND       PRES   REMARKS
LAS VEGAS      NOT AVBL
SALT LAKE CITY MOCLDY    75  41  29 S15       29.90R
$$

NMZ009-TXZ055-031400-
NEW MEXICO-WEST TEXAS

CITY           SKY/WX    TMP DP  RH WIND       PRES   REMARKS
ALBUQUERQUE    CLOUDY    64  47  53 SE3       30.17R
EL PASO        CLOUDY    77  52  41 NW3       30.06S
$$


........................KEY........................
SKY/WX - SKY CONDITION/WEATHER
TMP    - TEMPERATURE IN FAHRENHEIT
DP     - DEW POINT IN FAHRENHEIT
RH     - RELATIVE HUMIDITY IN PERCENT
WIND   - DIRECTION AND SPEED IN MILES PER HOUR (MPH)
VRB    - VARIABLE WIND DIRECTION
PRES   - MEAN SEA LEVEL PRESSURE IN INCHES OF MERCURY
         F - FALLING PRESSURE   R - RISING PRESSURE
         S - STEADY PRESSURE
VSB    - VISIBILITY IN MILES
HX     - HEAT INDEX IN FAHRENHEIT
WCI    - WIND CHILL INDEX IN FAHRENHEIT
TC     - TEMPERATURE IN CELSIUS WHICH IS ALSO KNOWN AS
         TEMPERATURE IN CENTIGRADE
AFB    - AIR FORCE BASE
         LUKE AFB IS LUKE AIR FORCE BASE
         DAVIS-MONTHAN IS DAVIS-MONTHAN AIR FORCE BASE
NAS    - NAVAL AIR STATION
         EL CENTRO NAS IS EL CENTRO NAVAL AIR STATION
N/A    - NOT AVAILABLE




USA.gov is the U.S. government's official web portal to all federal, state and local government web resources and services.